Tracking 17842 objects as of 30-August-2016
HD Live streaming from Space Station
objects crossing your sky now

COSMOS 2318 (GLONASS)

Track COSMOS 2318 (GLONASS) now!
COSMOS 2318 (GLONASS) is classified as:


NORAD ID: 23622
Int'l Code: 1995-037C
Perigee: 19,080.4 km
Apogee: 19,194.0 km
Inclination: 66.5 °
Period: 675.7 minutes
Semi major axis: 25508 km
RCS: 3.5243 m2 (large)
Launch date: July 24, 1995
Source: Commonwealth of Independent States (former USSR) (CIS)
Launch site: TYURATAM MISSILE AND SPACE COMPLEX (TTMTR)
SV:
Your satellite tracking list
Your tracking list is empty





NASA's NSSDC Master Catalog

Two Line Element Set (TLE):
1 23622U 95037C   16243.34970150 -.00000041  00000-0  00000+0 0  9999
2 23622  66.4587 319.7373 0022275 111.4547 241.7503  2.13101273164246
Source of the keplerian elements: AFSPC

N2YO: 445